Flag for Bahamas Weather past 2 weeks in Nassau, Bahamas

Now
91 °F

Partly sunny.


Feels Like: 108 °F
Forecast: 77 / 87 °F
Wind: 7 mph from South

Location: Nassau Airport

Current Time: Sep 20, 2014 at 2:42:59 PM

Latest Report: Sep 20, 2014 at 2:00 PM


Visibility: N/A

Pressure: 29.93 "Hg

Humidity: 67%

Dew point: 79 °F

Location of NassauLocation

Historic Weather in Nassau — Graph

°F

Nassau temperature yesterday

Maximum temperature yesterday: 88 °F (at 2:00 PM)
Minimum temperature yesterday: 77 °F (at 12:00 AM)
Average temperature yesterday: 80 °F

Past Weeks' High & Low Weather Summary

 TemperatureHumidityPressure
High91 °F (Sep 20, 2:00 PM)100% (Sep 11, 5:00 AM)30.16 "Hg (Sep 11, 5:00 AM)
Low72 °F (Sep 13, 1:00 AM)55% (Sep 16, 4:00 PM)29.90 "Hg (Sep 18, 4:00 AM)
Average82 °F78%30.02 "Hg
* Reported Sep 5 2:00 PM — Sep 20 2:00 PM, Nassau, Weather by CustomWeather, © 2014

Note: Actual official high and low records may vary slightly from our data, if they occured in-between our weather recording intervals... More about our weather records

Advertising

Nassau weather history for previous 24 hours

 ConditionsComfort  
Time TempWeatherWind HumidityBarometerVisibility
2:00 PM
Sep 20
91 °FPartly sunny.7 mph67%29.93 "HgN/A
9:00 AM84 °FPartly sunny.6 mph74%29.96 "HgN/A
8:00 AM81 °FBroken clouds.No wind94%29.95 "HgN/A
7:00 AM79 °FPassing clouds.No wind84%29.95 "HgN/A
6:00 AM79 °FPassing clouds.No wind84%29.94 "HgN/A
5:00 AM77 °FPassing clouds.No wind94%29.93 "HgN/A
4:00 AM79 °FPartly cloudy.No wind84%29.92 "HgN/A
3:00 AM79 °FPartly cloudy.No wind84%29.92 "HgN/A
2:00 AM77 °FPartly cloudy.No wind94%29.96 "HgN/A
1:00 AM79 °FPassing clouds.No wind84%29.97 "HgN/A
12:00 AM79 °FPassing clouds.No wind84%29.98 "HgN/A
11:00 PM
Sep 19
79 °FPartly cloudy.N/A94%29.99 "HgN/A
10:00 PM79 °FPassing clouds.No wind89%29.98 "HgN/A
9:00 PM79 °FPartly cloudy.No wind89%29.96 "HgN/A
8:00 PM81 °FBroken clouds.No wind94%29.94 "HgN/A
7:00 PM81 °FBroken clouds.No wind84%29.93 "HgN/A
6:00 PM81 °FLight rain. Partly sunny.No wind79%29.94 "HgN/A
5:00 PM82 °FSprinkles. Broken clouds.No wind84%29.95 "HgN/A
4:00 PM84 °FSprinkles. Broken clouds.7 mph70%29.93 "HgN/A
2:00 PM88 °FPartly sunny.5 mph70%29.94 "HgN/A
Weather by CustomWeather, © 2014

See weather overviewHow to use our weather pages